Location: Ford County Road and Bridge Department
(37.7686°N, 99.9762°W)
Time: 14:07:11
(UTC+00:00)

Cosmos 44 - Pass Details

Date: 18 January 2020
Orbit: 595 x 767 km, 65.1° (Epoch: 23 February)

Event Time Altitude Azimuth Distance (km) Brightness Sun altitude
Rises 01:32:20 0° 186° (S) 3,006 6.8 -20.6°
Reaches altitude 10° 01:34:53 10° 176° (S) 2,067 5.8 -21.1°
Enters shadow 01:37:31 26° 149° (SSE) 1,274 4.4 -21.6°
